Tracking 35331 objects as of 15-Sep-2026
HD Live streaming from Space Station
objects crossing your sky now

STARLINK-11529

Track STARLINK-11529 now!
10-day predictions
STARLINK-11529 is classified as:


NORAD ID: 62599
Int'l Code: 2025-008N
Launch date: January 13, 2025
Source: United States (US)
Launch site: AIR FORCE EASTERN TEST RANGE (AFETR)
Your satellite tracking list
Your tracking list is empty




NASA's NSSDC Master Catalog

Two Line Element Set (TLE):
1 62599U 25008N   26258.16269011  .00228883  00000-0  17341-2 0  9994
2 62599  42.9996  64.0597 0001250  31.4528 328.6414 15.70901384 97095
Source of the keplerian elements: AFSPC